Location: Cheching
(60.0667°N, 164.2167°W)
Time: 21:38:36
(UTC+00:00)

LilacSat-2 - Pass Details

Date: 26 January 2021
Orbit: 512 x 534 km, 97.5° (Epoch: 07 March)

Event Time Altitude Azimuth Distance (km) Brightness Sun altitude
Rises 17:57:34 0° 13° (NNE) 2,693 ? -10.2°
Reaches altitude 10° 17:59:46 10° 6° (N) 1,800 ? -9.9°
Maximum altitude 18:03:24 40° 296° (WNW) 810 ? -9.5°
Drops below altitude 10° 18:07:02 10° 227° (SW) 1,793 ? -9.1°
Sets 18:09:13 0° 220° (SW) 2,681 ? -8.8°
